Weather History for Pauls Valley, OK

Change the Weather History Date:

Wednesday, December 25, 2013

  Actual Average (KADH) Record (KADH)
Temperature  
Mean Temperature 34 °F -  
Max Temperature 41 °F 48 °F 78 °F (1955)
Min Temperature 26 °F 25 °F -2 °F (1983)
Degree Days  
Heating Degree Days 30    
Moisture  
Dew Point 30 °F    
Average Humidity 90    
Maximum Humidity 100    
Minimum Humidity 70    
Precipitation  
Precipitation 0.00 in - - ()
Sea Level Pressure  
Sea Level Pressure 30.35 in    
Wind  
Wind Speed 6 mph (NNW)    
Max Wind Speed 12 mph    
Max Gust Speed 16 mph    
Visibility 6 miles    
Events Fog    
Averages and records for this station are not official NWS values.
T = Trace of Precipitation, MM = Missing Value Source: NWS Daily Summary

Daily Weather History Graph

Daily Weather History Graph

Search for Another Location

Airport:

Trip Planner

Search our weather history database for the weather conditions in past years. The results will help you decide how hot, cold, wet, or windy it might be!

Date:

Astronomy

Dec. 25, 2013 Rise Set
Actual Time 7:34 AM CST 5:24 PM CST
Civil Twilight 7:06 AM CST 5:52 PM CST
Nautical Twilight 6:34 AM CST 6:23 PM CST
Astronomical Twilight 6:03 AM CST 6:54 PM CST
Moon 12:16 AM CST (12/25) 12:16 PM CST (12/25)
Length of Visible Light 10h 46m
Length of Day
9h 50m
Waning Gibbous, 48% of the Moon is Illuminated
Dec 25
Waning Gibbous
Jan 1
New
Jan 7
First Quarter
Jan 15
Full
Jan 23
Last Quarter

Hourly Weather History & Observations

Time (CST) Temp. Windchill Dew Point Humidity Pressure Visibility Wind Dir Wind Speed Gust Speed Precip Events Conditions
12:15 AM 35.6 °F 29.2 °F 32.0 °F 87% 30.22 in 10.0 mi South 8.1 mph - N/A   Unknown
12:35 AM 35.6 °F 29.2 °F 32.0 °F 87% 30.23 in 10.0 mi SSE 8.1 mph - N/A   Unknown
12:55 AM 35.6 °F 29.9 °F 32.0 °F 87% 30.23 in 10.0 mi South 6.9 mph - N/A   Unknown
1:15 AM 35.6 °F 28.0 °F 32.0 °F 87% 30.23 in - South 10.4 mph - N/A   Unknown
1:35 AM 35.6 °F 28.6 °F 32.0 °F 87% 30.22 in - SSE 9.2 mph - N/A   Unknown
1:55 AM 35.6 °F 28.0 °F 32.0 °F 87% 30.23 in - South 10.4 mph 16.1 mph N/A   Unknown
2:15 AM 35.6 °F 29.2 °F 30.2 °F 81% 30.23 in - South 8.1 mph - N/A   Unknown
2:35 AM 33.8 °F 30.8 °F 30.2 °F 87% 30.25 in - NNW 3.5 mph - N/A   Unknown
2:55 AM 32.0 °F 28.7 °F 30.2 °F 93% 30.26 in - NNW 3.5 mph - N/A   Unknown
3:15 AM 33.8 °F - 30.2 °F 87% 30.27 in - Calm Calm - N/A   Unknown
3:35 AM 33.8 °F 29.6 °F 30.2 °F 87% 30.27 in - NE 4.6 mph - N/A   Unknown
3:55 AM 32.0 °F 27.5 °F 30.2 °F 93% 30.28 in - NE 4.6 mph - N/A   Unknown
4:15 AM 32.0 °F - 30.2 °F 93% 30.28 in - Calm Calm - N/A   Unknown
4:35 AM 32.0 °F - 30.2 °F 93% 30.28 in - Calm Calm - N/A   Unknown
4:55 AM 32.0 °F 28.7 °F 30.2 °F 93% 30.27 in 10.0 mi East 3.5 mph - N/A   Unknown
5:15 AM 32.0 °F 27.5 °F 28.4 °F 87% 30.27 in 10.0 mi ENE 4.6 mph - N/A   Unknown
5:35 AM 32.0 °F - 30.2 °F 93% 30.27 in 10.0 mi Calm Calm - N/A   Unknown
5:55 AM 32.0 °F - 28.4 °F 87% 30.28 in 10.0 mi Calm Calm - N/A   Unknown
6:15 AM 32.0 °F - 30.2 °F 93% 30.28 in 10.0 mi Calm Calm - N/A   Unknown
6:35 AM 28.4 °F 23.3 °F 28.4 °F 100% 30.29 in 10.0 mi NNW 4.6 mph - N/A   Unknown
6:55 AM 28.4 °F 22.2 °F 28.4 °F 100% 30.30 in 7.0 mi NW 5.8 mph - N/A   Unknown
7:15 AM 28.4 °F 24.6 °F 26.6 °F 93% 30.30 in 7.0 mi NW 3.5 mph - N/A   Unknown
7:35 AM 28.4 °F 21.2 °F 26.6 °F 93% 30.31 in 5.0 mi NW 6.9 mph - N/A   Mist
7:55 AM 28.4 °F 21.2 °F 28.4 °F 100% 30.33 in 3.0 mi NW 6.9 mph - N/A   Mist
8:15 AM 28.4 °F 19.1 °F 28.4 °F 100% 30.34 in 0.2 mi NW 10.4 mph - N/A Fog Light Freezing Fog
8:35 AM 30.2 °F 21.3 °F 28.4 °F 93% 30.35 in 0.2 mi NNW 10.4 mph - N/A Fog Light Freezing Fog
8:55 AM 30.2 °F 20.8 °F 30.2 °F 100% 30.36 in 0.5 mi North 11.5 mph - N/A Fog Light Freezing Fog
9:15 AM 30.2 °F 21.9 °F 30.2 °F 100% 30.37 in 0.5 mi NNW 9.2 mph - N/A Fog Light Freezing Fog
9:35 AM 30.2 °F 22.6 °F 30.2 °F 100% 30.38 in 1.0 mi North 8.1 mph - N/A   Mist
9:55 AM 30.2 °F 21.9 °F 30.2 °F 100% 30.39 in 1.5 mi North 9.2 mph - N/A   Mist
10:15 AM 30.2 °F 22.6 °F 30.2 °F 100% 30.40 in 2.0 mi North 8.1 mph - N/A   Mist
10:35 AM 30.2 °F 21.9 °F 30.2 °F 100% 30.40 in 2.5 mi North 9.2 mph - N/A   Mist
10:55 AM 32.0 °F 25.6 °F 30.2 °F 93% 30.40 in 2.5 mi NNW 6.9 mph - N/A   Mist
11:15 AM 32.0 °F 24.8 °F 32.0 °F 100% 30.40 in 4.0 mi North 8.1 mph - N/A   Mist
11:35 AM 32.0 °F 24.8 °F 32.0 °F 100% 30.39 in 4.0 mi North 8.1 mph - N/A   Mist
11:55 AM 32.0 °F 24.2 °F 32.0 °F 100% 30.39 in 7.0 mi NNE 9.2 mph - N/A   Unknown
12:15 PM 33.8 °F 27.0 °F 32.0 °F 93% 30.38 in 7.0 mi North 8.1 mph - N/A   Unknown
12:35 PM 33.8 °F 25.8 °F 32.0 °F 93% 30.37 in 7.0 mi North 10.4 mph - N/A   Unknown
12:55 PM 33.8 °F 26.4 °F 32.0 °F 93% 30.37 in 7.0 mi NNW 9.2 mph - N/A   Unknown
1:15 PM 35.6 °F 28.0 °F 32.0 °F 87% 30.37 in 7.0 mi North 10.4 mph - N/A   Unknown
1:35 PM 35.6 °F 28.0 °F 32.0 °F 87% 30.36 in 7.0 mi North 10.4 mph - N/A   Unknown
1:55 PM 37.4 °F 30.8 °F 32.0 °F 81% 30.36 in 7.0 mi North 9.2 mph - N/A   Unknown
2:15 PM 39.2 °F 32.5 °F 32.0 °F 75% 30.36 in - North 10.4 mph - N/A   Unknown
2:35 PM 41.0 °F 34.7 °F 32.0 °F 70% 30.36 in - NNW 10.4 mph - N/A   Unknown
2:55 PM 39.2 °F 32.5 °F 32.0 °F 75% 30.36 in - North 10.4 mph - N/A   Unknown
3:15 PM 41.0 °F 35.2 °F 32.0 °F 70% 30.37 in - North 9.2 mph - N/A   Unknown
3:35 PM 41.0 °F 34.3 °F 32.0 °F 70% 30.37 in - NNE 11.5 mph - N/A   Unknown
3:55 PM 41.0 °F 35.2 °F 32.0 °F 70% 30.38 in - NNW 9.2 mph - N/A   Unknown
4:15 PM 41.0 °F 35.2 °F 32.0 °F 70% 30.38 in - North 9.2 mph - N/A   Unknown
4:35 PM 41.0 °F 35.2 °F 32.0 °F 70% 30.38 in - North 9.2 mph - N/A   Unknown
4:55 PM 39.2 °F 33.6 °F 32.0 °F 75% 30.39 in - North 8.1 mph - N/A   Unknown
5:15 PM 37.4 °F 32.1 °F 30.2 °F 75% 30.39 in - North 6.9 mph - N/A   Unknown
5:35 PM 35.6 °F 30.7 °F 30.2 °F 81% 30.39 in - North 5.8 mph - N/A   Unknown
5:55 PM 35.6 °F 31.7 °F 30.2 °F 81% 30.39 in 10.0 mi North 4.6 mph - N/A   Unknown
6:15 PM 35.6 °F - 30.2 °F 81% 30.39 in 10.0 mi Calm Calm - N/A   Unknown
6:35 PM 33.8 °F - 30.2 °F 87% 30.40 in 10.0 mi Calm Calm - N/A   Unknown
6:55 PM 32.0 °F 28.7 °F 30.2 °F 93% 30.40 in - North 3.5 mph - N/A   Unknown
7:15 PM 32.0 °F 28.7 °F 30.2 °F 93% 30.41 in - NNW 3.5 mph - N/A   Unknown
7:35 PM 32.0 °F 28.7 °F 30.2 °F 93% 30.42 in - NNW 3.5 mph - N/A   Unknown
7:55 PM 32.0 °F 28.7 °F 30.2 °F 93% 30.42 in - NNW 3.5 mph - N/A   Unknown
8:15 PM 30.2 °F - 30.2 °F 100% 30.42 in - Calm Calm - N/A   Unknown
8:35 PM 32.0 °F - 30.2 °F 93% 30.41 in - Calm Calm - N/A   Unknown
8:55 PM 30.2 °F - 30.2 °F 100% 30.42 in 5.0 mi Calm Calm - N/A   Mist
9:15 PM 30.2 °F 26.7 °F 28.4 °F 93% 30.42 in 4.0 mi WNW 3.5 mph - N/A   Mist
9:35 PM 30.2 °F 26.7 °F 30.2 °F 100% 30.42 in 5.0 mi NW 3.5 mph - N/A   Mist
9:55 PM 30.2 °F 25.4 °F 28.4 °F 93% 30.42 in 5.0 mi NW 4.6 mph - N/A   Mist
10:15 PM 28.4 °F 24.6 °F 28.4 °F 100% 30.43 in 5.0 mi WNW 3.5 mph - N/A   Mist
10:35 PM 28.4 °F 23.3 °F 28.4 °F 100% 30.43 in 5.0 mi WNW 4.6 mph - N/A   Mist
10:55 PM 28.4 °F - 28.4 °F 100% 30.43 in 5.0 mi Calm Calm - N/A   Mist
11:15 PM 28.4 °F 24.6 °F 28.4 °F 100% 30.43 in 5.0 mi NW 3.5 mph - N/A   Mist
11:35 PM 28.4 °F 24.6 °F 28.4 °F 100% 30.42 in 5.0 mi NW 3.5 mph - N/A   Mist
11:55 PM 26.6 °F 22.6 °F 26.6 °F 100% 30.42 in 5.0 mi NW 3.5 mph - N/A   Mist